Time,TemperatureF,DewpointF,PressureIn,WindDirection,WindDirectionDegrees,WindSpeedMPH,WindSpeedGustMPH,Humidity,HourlyPrecipIn,Conditions,Clouds,dailyrainin,SoftwareType,DateUTC
2013-04-28 00:01:00,54.5,45.3,29.76,SSW,205,8.0,11.0,71,0.00,,---,0.00,VWS V14.01,2013-04-28 05:01:00,
2013-04-28 00:06:00,54.5,45.7,29.76,SSW,212,12.0,12.0,72,0.00,,---,0.00,VWS V14.01,2013-04-28 05:06:00,
2013-04-28 00:11:00,55.0,45.8,29.76,SSW,206,9.0,13.0,71,0.00,,---,0.00,VWS V14.01,2013-04-28 05:11:00,
2013-04-28 00:16:00,54.8,46.0,29.75,SSW,202,8.0,11.0,72,0.00,,---,0.00,VWS V14.01,2013-04-28 05:16:00,
2013-04-28 00:21:00,54.4,45.9,29.75,SSW,203,7.0,12.0,73,0.00,,---,0.00,VWS V14.01,2013-04-28 05:21:00,
2013-04-28 00:26:00,54.4,45.6,29.75,SSW,205,8.0,13.0,72,0.00,,---,0.00,VWS V14.01,2013-04-28 05:26:00,
2013-04-28 00:31:00,54.2,45.8,29.75,SSW,200,10.0,13.0,73,0.00,,---,0.00,VWS V14.01,2013-04-28 05:31:00,
2013-04-28 00:35:00,54.2,45.8,29.75,SW,217,11.0,12.0,73,0.00,,---,0.00,VWS V14.01,2013-04-28 05:35:00,
2013-04-28 00:40:00,54.5,45.7,29.75,SW,222,12.0,13.0,72,0.00,,---,0.00,VWS V14.01,2013-04-28 05:40:00,
2013-04-28 00:45:00,54.8,45.6,29.75,SW,217,10.0,14.0,71,0.00,,---,0.00,VWS V14.01,2013-04-28 05:45:00,
2013-04-28 00:50:00,55.0,45.4,29.75,SSW,206,11.0,17.0,70,0.00,,---,0.00,VWS V14.01,2013-04-28 05:50:00,
2013-04-28 00:55:00,55.0,45.4,29.75,SSW,209,10.0,18.0,70,0.00,,---,0.00,VWS V14.01,2013-04-28 05:55:00,
2013-04-28 01:00:00,54.8,45.6,29.75,SW,215,12.0,18.0,71,0.00,,---,0.00,VWS V14.01,2013-04-28 06:00:00,
2013-04-28 01:05:00,54.5,45.3,29.75,SSW,206,10.0,13.0,71,0.00,,---,0.00,VWS V14.01,2013-04-28 06:05:00,
2013-04-28 01:10:00,54.7,45.5,29.75,SW,217,14.0,16.0,71,0.00,,---,0.00,VWS V14.01,2013-04-28 06:10:00,
2013-04-28 01:15:00,54.8,45.2,29.75,SSW,203,17.0,17.0,70,0.00,,---,0.00,VWS V14.01,2013-04-28 06:15:00,
2013-04-28 01:20:00,54.8,45.2,29.75,SSW,213,13.0,17.0,70,0.00,,---,0.00,VWS V14.01,2013-04-28 06:20:00,
2013-04-28 01:25:00,54.7,45.5,29.75,SSW,205,12.0,18.0,71,0.00,,---,0.00,VWS V14.01,2013-04-28 06:25:00,
2013-04-28 01:30:00,54.8,45.2,29.75,SSW,208,11.0,18.0,70,0.00,,---,0.00,VWS V14.01,2013-04-28 06:30:00,
2013-04-28 01:35:00,54.5,45.3,29.75,SW,219,17.0,18.0,71,0.00,,---,0.00,VWS V14.01,2013-04-28 06:35:00,
2013-04-28 01:40:00,54.5,45.3,29.75,SW,219,12.0,18.0,71,0.00,,---,0.00,VWS V14.01,2013-04-28 06:40:00,
2013-04-28 01:45:00,54.4,45.6,29.75,SSW,210,13.0,17.0,72,0.00,,---,0.00,VWS V14.01,2013-04-28 06:45:00,
2013-04-28 01:50:00,54.5,45.7,29.75,SSW,203,14.0,18.0,72,0.00,,---,0.00,VWS V14.01,2013-04-28 06:50:00,
2013-04-28 01:55:00,54.1,45.3,29.75,SW,215,13.0,14.0,72,0.00,,---,0.00,VWS V14.01,2013-04-28 06:55:00,
2013-04-28 02:00:00,53.3,45.6,29.75,SSW,203,8.0,14.0,75,0.00,,---,0.00,VWS V14.01,2013-04-28 07:00:00,
2013-04-28 02:05:00,52.9,45.5,29.75,SSW,209,11.0,12.0,76,0.00,,---,0.00,VWS V14.01,2013-04-28 07:05:00,
2013-04-28 02:10:00,52.9,45.2,29.75,SSW,200,11.0,18.0,75,0.00,,---,0.00,VWS V14.01,2013-04-28 07:10:00,
2013-04-28 02:15:00,52.8,45.5,29.74,SSW,205,11.0,12.0,76,0.00,,---,0.00,VWS V14.01,2013-04-28 07:15:00,
2013-04-28 02:20:00,52.6,45.3,29.74,SW,219,13.0,14.0,76,0.00,,---,0.00,VWS V14.01,2013-04-28 07:20:00,
2013-04-28 02:25:00,52.9,45.2,29.74,SSW,209,13.0,18.0,75,0.00,,---,0.00,VWS V14.01,2013-04-28 07:25:00,
2013-04-28 02:30:00,53.1,45.4,29.74,SW,223,14.0,18.0,75,0.00,,---,0.00,VWS V14.01,2013-04-28 07:30:00,
2013-04-28 02:35:00,53.3,45.6,29.74,SW,216,14.0,18.0,75,0.00,,---,0.00,VWS V14.01,2013-04-28 07:35:00,
2013-04-28 02:40:00,53.1,45.4,29.74,SW,219,12.0,18.0,75,0.00,,---,0.00,VWS V14.01,2013-04-28 07:40:00,
2013-04-28 02:45:00,52.9,45.2,29.73,SSW,212,12.0,16.0,75,0.00,,---,0.00,VWS V14.01,2013-04-28 07:45:00,
2013-04-28 02:50:00,52.8,45.1,29.73,SSW,212,12.0,17.0,75,0.00,,---,0.00,VWS V14.01,2013-04-28 07:50:00,
2013-04-28 02:55:00,52.9,45.5,29.73,SW,220,11.0,19.0,76,0.00,,---,0.00,VWS V14.01,2013-04-28 07:55:00,
2013-04-28 03:00:00,53.2,45.5,29.73,SSW,206,11.0,19.0,75,0.00,,---,0.00,VWS V14.01,2013-04-28 08:00:00,
2013-04-28 03:05:00,53.1,45.8,29.73,SSW,210,16.0,18.0,76,0.00,,---,0.00,VWS V14.01,2013-04-28 08:05:00,
2013-04-28 03:10:00,53.2,45.5,29.73,SW,236,12.0,18.0,75,0.00,,---,0.00,VWS V14.01,2013-04-28 08:10:00,
2013-04-28 03:15:00,53.1,45.4,29.73,SSW,206,14.0,17.0,75,0.00,,---,0.00,VWS V14.01,2013-04-28 08:15:00,
2013-04-28 03:20:00,53.2,45.5,29.73,SW,215,16.0,19.0,75,0.00,,---,0.00,VWS V14.01,2013-04-28 08:20:00,
2013-04-28 03:25:00,52.9,45.5,29.73,SW,219,13.0,18.0,76,0.00,,---,0.00,VWS V14.01,2013-04-28 08:25:00,
2013-04-28 03:30:00,52.9,45.5,29.73,SSW,212,14.0,18.0,76,0.00,,---,0.00,VWS V14.01,2013-04-28 08:30:00,
2013-04-28 03:35:00,52.6,45.3,29.73,SSW,212,14.0,19.0,76,0.00,,---,0.00,VWS V14.01,2013-04-28 08:35:00,
2013-04-28 03:40:00,52.2,45.6,29.73,SW,220,13.0,19.0,78,0.00,,---,0.00,VWS V14.01,2013-04-28 08:40:00,
2013-04-28 03:45:00,52.2,45.6,29.73,SW,224,15.0,19.0,78,0.00,,---,0.00,VWS V14.01,2013-04-28 08:45:00,
2013-04-28 03:50:00,52.5,45.5,29.72,SW,219,12.0,21.0,77,0.00,,---,0.00,VWS V14.01,2013-04-28 08:50:00,
2013-04-28 03:55:00,52.2,45.2,29.72,SW,230,18.0,19.0,77,0.00,,---,0.00,VWS V14.01,2013-04-28 08:55:00,
2013-04-28 04:00:00,52.2,45.6,29.72,WSW,239,13.0,20.0,78,0.00,,---,0.00,VWS V14.01,2013-04-28 09:00:00,
2013-04-28 04:05:00,51.9,45.3,29.71,SSW,213,19.0,19.0,78,0.00,,---,0.00,VWS V14.01,2013-04-28 09:05:00,
2013-04-28 04:10:00,52.0,45.4,29.71,SW,232,20.0,21.0,78,0.00,,---,0.00,VWS V14.01,2013-04-28 09:10:00,
2013-04-28 04:15:00,52.0,45.4,29.71,SSW,213,13.0,20.0,78,0.00,,---,0.00,VWS V14.01,2013-04-28 09:15:00,
2013-04-28 04:20:00,51.9,45.3,29.71,SSW,213,13.0,21.0,78,0.00,,---,0.00,VWS V14.01,2013-04-28 09:20:00,
2013-04-28 04:25:00,51.9,45.3,29.71,WSW,239,16.0,19.0,78,0.00,,---,0.00,VWS V14.01,2013-04-28 09:25:00,
2013-04-28 04:30:00,51.7,45.1,29.71,SW,216,17.0,20.0,78,0.00,,---,0.00,VWS V14.01,2013-04-28 09:30:00,
2013-04-28 04:35:00,51.7,45.1,29.71,SSW,212,19.0,19.0,78,0.00,,---,0.00,VWS V14.01,2013-04-28 09:35:00,
2013-04-28 04:40:00,51.7,45.1,29.71,SSW,199,13.0,20.0,78,0.00,,---,0.00,VWS V14.01,2013-04-28 09:40:00,
2013-04-28 04:45:00,51.6,45.3,29.71,SW,230,19.0,19.0,79,0.00,,---,0.00,VWS V14.01,2013-04-28 09:45:00,
2013-04-28 04:50:00,51.3,45.0,29.71,SW,220,19.0,20.0,79,0.00,,---,0.00,VWS V14.01,2013-04-28 09:50:00,
2013-04-28 04:55:00,51.1,45.2,29.71,SSW,210,12.0,20.0,80,0.00,,---,0.00,VWS V14.01,2013-04-28 09:55:00,
2013-04-28 05:00:00,51.0,45.1,29.71,SW,222,13.0,21.0,80,0.00,,---,0.00,VWS V14.01,2013-04-28 10:00:00,
2013-04-28 05:05:00,51.0,45.1,29.71,SSW,212,14.0,19.0,80,0.00,,---,0.00,VWS V14.01,2013-04-28 10:05:00,
2013-04-28 05:10:00,51.1,45.2,29.71,SSW,206,11.0,21.0,80,0.00,,---,0.00,VWS V14.01,2013-04-28 10:10:00,
2013-04-28 05:15:00,50.4,44.8,29.71,SSW,198,12.0,16.0,81,0.00,,---,0.00,VWS V14.01,2013-04-28 10:15:00,
2013-04-28 05:20:00,49.9,45.0,29.70,SSW,192,10.0,18.0,83,0.00,,---,0.00,VWS V14.01,2013-04-28 10:20:00,
2013-04-28 05:25:00,49.6,44.7,29.70,SSW,196,14.0,16.0,83,0.00,,---,0.00,VWS V14.01,2013-04-28 10:25:00,
2013-04-28 05:30:00,49.4,44.8,29.70,SSW,205,13.0,17.0,84,0.00,,---,0.00,VWS V14.01,2013-04-28 10:30:00,
2013-04-28 05:35:00,49.1,44.5,29.70,SSW,210,12.0,18.0,84,0.00,,---,0.00,VWS V14.01,2013-04-28 10:35:00,
2013-04-28 05:40:00,48.9,44.6,29.70,SSW,206,10.0,18.0,85,0.00,,---,0.00,VWS V14.01,2013-04-28 10:40:00,
2013-04-28 05:45:00,48.9,44.6,29.70,SSW,205,14.0,16.0,85,0.00,,---,0.00,VWS V14.01,2013-04-28 10:45:00,
2013-04-28 05:50:00,49.1,44.8,29.70,SSW,205,12.0,17.0,85,0.00,,---,0.00,VWS V14.01,2013-04-28 10:50:00,
2013-04-28 05:55:00,49.1,44.8,29.70,SSW,193,12.0,16.0,85,0.00,,---,0.00,VWS V14.01,2013-04-28 10:55:00,
2013-04-28 06:00:00,49.1,44.8,29.70,SSW,198,14.0,18.0,85,0.00,,---,0.00,VWS V14.01,2013-04-28 11:00:00,
2013-04-28 06:05:00,49.2,44.9,29.69,SSW,202,13.0,18.0,85,0.00,,---,0.00,VWS V14.01,2013-04-28 11:05:00,
2013-04-28 06:10:00,49.1,44.8,29.69,SSW,195,12.0,18.0,85,0.00,,---,0.00,VWS V14.01,2013-04-28 11:10:00,
2013-04-28 06:15:00,49.1,44.8,29.69,SW,217,12.0,16.0,85,0.00,,---,0.00,VWS V14.01,2013-04-28 11:15:00,
2013-04-28 06:20:00,49.1,44.8,29.68,SSW,200,11.0,20.0,85,0.00,,---,0.00,VWS V14.01,2013-04-28 11:20:00,
2013-04-28 06:25:00,48.9,44.9,29.68,SSW,193,11.0,16.0,86,0.00,,---,0.00,VWS V14.01,2013-04-28 11:25:00,
2013-04-28 06:30:00,49.1,44.8,29.68,SSW,206,12.0,17.0,85,0.00,,---,0.00,VWS V14.01,2013-04-28 11:30:00,
2013-04-28 06:34:00,49.1,44.8,29.68,SSW,203,12.0,13.0,85,0.00,,---,0.00,VWS V14.01,2013-04-28 11:34:00,
2013-04-28 06:39:00,49.4,45.1,29.68,SSW,208,13.0,15.0,85,0.00,,---,0.00,VWS V14.01,2013-04-28 11:39:00,
2013-04-28 06:44:00,49.4,45.1,29.68,South,181,11.0,12.0,85,0.00,,---,0.00,VWS V14.01,2013-04-28 11:44:00,
2013-04-28 06:49:00,49.4,45.1,29.68,SSW,208,13.0,14.0,85,0.00,,---,0.00,VWS V14.01,2013-04-28 11:49:00,
2013-04-28 06:54:00,49.5,45.2,29.68,SSW,213,13.0,16.0,85,0.00,,---,0.00,VWS V14.01,2013-04-28 11:54:00,
2013-04-28 06:59:00,49.8,45.5,29.68,SW,217,16.0,19.0,85,0.00,,---,0.00,VWS V14.01,2013-04-28 11:59:00,
2013-04-28 07:04:00,49.9,45.6,29.68,SW,215,15.0,18.0,85,0.00,,---,0.00,VWS V14.01,2013-04-28 12:04:00,
2013-04-28 07:09:00,50.4,45.8,29.68,SW,220,18.0,18.0,84,0.00,,---,0.00,VWS V14.01,2013-04-28 12:09:00,
2013-04-28 07:14:00,50.8,45.8,29.68,SSW,202,13.0,20.0,83,0.00,,---,0.00,VWS V14.01,2013-04-28 12:14:00,
2013-04-28 07:19:00,51.3,46.3,29.68,SSW,203,18.0,20.0,83,0.00,,---,0.00,VWS V14.01,2013-04-28 12:19:00,
2013-04-28 07:24:00,51.9,46.3,29.68,SW,222,17.0,19.0,81,0.00,,---,0.00,VWS V14.01,2013-04-28 12:24:00,
2013-04-28 07:29:00,52.5,46.8,29.68,South,191,17.0,25.0,81,0.00,,---,0.00,VWS V14.01,2013-04-28 12:29:00,
2013-04-28 07:34:00,52.8,46.1,29.68,SSW,205,13.0,20.0,78,0.00,,---,0.00,VWS V14.01,2013-04-28 12:34:00,
2013-04-28 07:39:00,52.9,46.2,29.68,SSW,202,13.0,21.0,78,0.00,,---,0.00,VWS V14.01,2013-04-28 12:39:00,
2013-04-28 07:44:00,53.1,46.1,29.68,SW,215,17.0,22.0,77,0.00,,---,0.00,VWS V14.01,2013-04-28 12:44:00,
2013-04-28 07:49:00,53.2,46.2,29.67,SSW,210,18.0,22.0,77,0.00,,---,0.00,VWS V14.01,2013-04-28 12:49:00,
2013-04-28 07:54:00,53.5,46.1,29.67,SW,215,19.0,25.0,76,0.00,,---,0.00,VWS V14.01,2013-04-28 12:54:00,
2013-04-28 07:59:00,53.6,46.2,29.67,SSW,205,13.0,25.0,76,0.00,,---,0.00,VWS V14.01,2013-04-28 12:59:00,
2013-04-28 08:04:00,53.8,46.1,29.67,SSW,205,16.0,22.0,75,0.00,,---,0.00,VWS V14.01,2013-04-28 13:04:00,
2013-04-28 08:09:00,54.1,46.4,29.67,SW,223,15.0,22.0,75,0.00,,---,0.00,VWS V14.01,2013-04-28 13:09:00,
2013-04-28 08:14:00,54.5,46.4,29.67,SW,215,19.0,19.0,74,0.00,,---,0.00,VWS V14.01,2013-04-28 13:14:00,
2013-04-28 08:19:00,55.1,46.6,29.68,SW,220,12.0,19.0,73,0.00,,---,0.00,VWS V14.01,2013-04-28 13:19:00,
2013-04-28 08:24:00,55.7,46.8,29.68,SW,223,18.0,21.0,72,0.00,,---,0.00,VWS V14.01,2013-04-28 13:24:00,
2013-04-28 08:29:00,56.0,47.1,29.68,SW,227,16.0,22.0,72,0.00,,---,0.00,VWS V14.01,2013-04-28 13:29:00,
2013-04-28 08:34:00,56.6,47.3,29.67,SSW,210,13.0,20.0,71,0.00,,---,0.00,VWS V14.01,2013-04-28 13:34:00,
2013-04-28 08:39:00,56.9,47.6,29.67,South,191,13.0,26.0,71,0.00,,---,0.00,VWS V14.01,2013-04-28 13:39:00,
2013-04-28 08:44:00,57.2,47.1,29.67,SSW,200,16.0,21.0,69,0.00,,---,0.00,VWS V14.01,2013-04-28 13:44:00,
2013-04-28 08:49:00,57.6,47.9,29.65,SW,219,21.0,24.0,70,0.00,,---,0.00,VWS V14.01,2013-04-28 13:49:00,
2013-04-28 08:54:00,58.0,47.1,29.65,SW,223,19.0,32.0,67,0.00,,---,0.00,VWS V14.01,2013-04-28 13:54:00,
2013-04-28 08:59:00,58.6,48.1,29.65,SW,216,18.0,32.0,68,0.00,,---,0.00,VWS V14.01,2013-04-28 13:59:00,
2013-04-28 09:04:00,58.7,47.8,29.65,SSW,212,17.0,28.0,67,0.00,,---,0.00,VWS V14.01,2013-04-28 14:04:00,
2013-04-28 09:09:00,58.7,47.0,29.65,WSW,239,22.0,28.0,65,0.00,,---,0.00,VWS V14.01,2013-04-28 14:09:00,
2013-04-28 09:14:00,59.0,47.3,29.65,WSW,239,16.0,22.0,65,0.00,,---,0.00,VWS V14.01,2013-04-28 14:14:00,
2013-04-28 09:19:00,59.3,48.0,29.65,SW,234,20.0,22.0,66,0.00,,---,0.00,VWS V14.01,2013-04-28 14:19:00,
2013-04-28 09:24:00,59.3,48.0,29.65,SW,226,24.0,29.0,66,0.00,,---,0.00,VWS V14.01,2013-04-28 14:24:00,
2013-04-28 09:29:00,59.2,47.5,29.65,SSW,203,24.0,29.0,65,0.00,,---,0.00,VWS V14.01,2013-04-28 14:29:00,
2013-04-28 09:34:00,59.3,47.5,29.65,SW,217,19.0,28.0,65,0.00,,---,0.00,VWS V14.01,2013-04-28 14:34:00,
2013-04-28 09:39:00,59.5,48.9,29.65,SW,220,13.0,28.0,68,0.00,,---,0.00,VWS V14.01,2013-04-28 14:39:00,
2013-04-28 09:44:00,59.8,49.2,29.65,SW,219,16.0,21.0,68,0.00,,---,0.00,VWS V14.01,2013-04-28 14:44:00,
2013-04-28 09:49:00,59.9,49.3,29.65,SSW,213,17.0,21.0,68,0.00,,---,0.00,VWS V14.01,2013-04-28 14:49:00,
2013-04-28 09:54:00,59.9,47.7,29.65,SSW,212,18.0,22.0,64,0.00,,---,0.00,VWS V14.01,2013-04-28 14:54:00,
2013-04-28 09:59:00,60.1,48.7,29.65,SW,220,19.0,26.0,66,0.00,,---,0.00,VWS V14.01,2013-04-28 14:59:00,
2013-04-28 10:04:00,60.5,49.1,29.64,WSW,241,21.0,21.0,66,0.00,,---,0.00,VWS V14.01,2013-04-28 15:04:00,
2013-04-28 10:09:00,60.9,48.7,29.64,SW,219,22.0,27.0,64,0.00,,---,0.00,VWS V14.01,2013-04-28 15:09:00,
2013-04-28 10:14:00,61.0,48.3,29.64,SW,223,17.0,26.0,63,0.00,,---,0.00,VWS V14.01,2013-04-28 15:14:00,
2013-04-28 10:19:00,61.2,49.3,29.65,SSW,210,13.0,26.0,65,0.00,,---,0.00,VWS V14.01,2013-04-28 15:19:00,
2013-04-28 10:24:00,62.1,48.9,29.65,SW,220,17.0,24.0,62,0.00,,---,0.00,VWS V14.01,2013-04-28 15:24:00,
2013-04-28 10:29:00,62.6,49.4,29.65,SW,217,16.0,26.0,62,0.00,,---,0.00,VWS V14.01,2013-04-28 15:29:00,
2013-04-28 10:34:00,63.1,49.9,29.64,SSW,199,13.0,24.0,62,0.00,,---,0.00,VWS V14.01,2013-04-28 15:34:00,
2013-04-28 10:39:00,62.9,49.7,29.64,SSW,212,17.0,24.0,62,0.00,,---,0.00,VWS V14.01,2013-04-28 15:39:00,
2013-04-28 10:44:00,62.7,49.9,29.64,SW,219,14.0,22.0,63,0.00,,---,0.00,VWS V14.01,2013-04-28 15:44:00,
2013-04-28 10:49:00,63.1,49.5,29.63,SSW,208,13.0,22.0,61,0.00,,---,0.00,VWS V14.01,2013-04-28 15:49:00,
2013-04-28 10:54:00,63.4,50.2,29.63,WSW,240,14.0,19.0,62,0.00,,---,0.00,VWS V14.01,2013-04-28 15:54:00,
2013-04-28 10:59:00,63.1,49.5,29.63,SW,215,12.0,24.0,61,0.00,,---,0.00,VWS V14.01,2013-04-28 15:59:00,
2013-04-28 11:04:00,63.7,49.6,29.63,SSW,212,16.0,20.0,60,0.00,,---,0.00,VWS V14.01,2013-04-28 16:04:00,
2013-04-28 11:09:00,64.0,49.4,29.63,SSW,212,15.0,21.0,59,0.00,,---,0.00,VWS V14.01,2013-04-28 16:09:00,
2013-04-28 11:14:00,64.7,50.5,29.63,SSW,210,19.0,19.0,60,0.00,,---,0.00,VWS V14.01,2013-04-28 16:14:00,
2013-04-28 11:19:00,64.5,49.9,29.64,SW,227,18.0,20.0,59,0.00,,---,0.00,VWS V14.01,2013-04-28 16:19:00,
2013-04-28 11:24:00,64.8,49.7,29.64,SW,220,13.0,20.0,58,0.00,,---,0.00,VWS V14.01,2013-04-28 16:24:00,
2013-04-28 11:29:00,66.0,49.9,29.64,SSW,212,19.0,21.0,56,0.00,,---,0.00,VWS V14.01,2013-04-28 16:29:00,
2013-04-28 11:34:00,66.0,50.8,29.63,SW,215,19.0,21.0,58,0.00,,---,0.00,VWS V14.01,2013-04-28 16:34:00,
2013-04-28 11:39:00,65.8,50.6,29.63,SSW,196,11.0,21.0,58,0.00,,---,0.00,VWS V14.01,2013-04-28 16:39:00,
2013-04-28 11:44:00,65.8,51.1,29.63,SSW,208,14.0,18.0,59,0.00,,---,0.00,VWS V14.01,2013-04-28 16:44:00,
2013-04-28 11:49:00,65.8,52.0,29.63,SW,216,17.0,20.0,61,0.00,,---,0.00,VWS V14.01,2013-04-28 16:49:00,
2013-04-28 11:54:00,65.8,52.0,29.63,SSW,196,12.0,20.0,61,0.00,,---,0.00,VWS V14.01,2013-04-28 16:54:00,
2013-04-28 11:59:00,66.1,50.4,29.63,SW,222,13.0,20.0,57,0.00,,---,0.00,VWS V14.01,2013-04-28 16:59:00,
2013-04-28 12:04:00,66.4,50.7,29.63,WSW,237,13.0,17.0,57,0.00,,---,0.00,VWS V14.01,2013-04-28 17:04:00,
2013-04-28 12:09:00,66.4,50.7,29.63,SSW,203,11.0,19.0,57,0.00,,---,0.00,VWS V14.01,2013-04-28 17:09:00,
2013-04-28 12:14:00,67.1,50.9,29.63,SW,216,17.0,17.0,56,0.00,,---,0.00,VWS V14.01,2013-04-28 17:14:00,
2013-04-28 12:19:00,67.6,50.9,29.62,SW,236,12.0,19.0,55,0.00,,---,0.00,VWS V14.01,2013-04-28 17:19:00,
2013-04-28 12:24:00,68.3,51.5,29.62,SW,222,16.0,17.0,55,0.00,,---,0.00,VWS V14.01,2013-04-28 17:24:00,
2013-04-28 12:29:00,68.6,50.3,29.62,SW,227,9.0,17.0,52,0.00,,---,0.00,VWS V14.01,2013-04-28 17:29:00,
2013-04-28 12:34:00,69.1,52.3,29.62,SSW,208,12.0,14.0,55,0.00,,---,0.00,VWS V14.01,2013-04-28 17:34:00,
2013-04-28 12:39:00,69.6,52.7,29.62,SSW,212,8.0,18.0,55,0.00,,---,0.00,VWS V14.01,2013-04-28 17:39:00,
2013-04-28 12:43:00,69.9,51.0,29.62,SW,220,14.0,18.0,51,0.00,,---,0.00,VWS V14.01,2013-04-28 17:43:00,
2013-04-28 12:48:00,70.8,49.6,29.61,SW,233,13.0,18.0,47,0.00,,---,0.00,VWS V14.01,2013-04-28 17:48:00,
2013-04-28 12:53:00,71.1,47.5,29.61,SW,234,16.0,20.0,43,0.00,,---,0.00,VWS V14.01,2013-04-28 17:53:00,
2013-04-28 12:58:00,71.3,47.7,29.61,WSW,251,8.0,20.0,43,0.00,,---,0.00,VWS V14.01,2013-04-28 17:58:00,
2013-04-28 13:03:00,72.0,49.5,29.60,SSW,209,13.0,17.0,45,0.00,,---,0.00,VWS V14.01,2013-04-28 18:03:00,
2013-04-28 13:08:00,71.6,49.2,29.60,SW,236,12.0,17.0,45,0.00,,---,0.00,VWS V14.01,2013-04-28 18:08:00,
2013-04-28 13:13:00,71.6,47.3,29.60,WSW,244,10.0,17.0,42,0.00,,---,0.00,VWS V14.01,2013-04-28 18:13:00,
2013-04-28 13:18:00,72.1,50.2,29.60,SW,234,7.0,17.0,46,0.00,,---,0.00,VWS V14.01,2013-04-28 18:18:00,
2013-04-28 13:23:00,71.8,49.9,29.60,SW,222,10.0,17.0,46,0.00,,---,0.00,VWS V14.01,2013-04-28 18:23:00,
2013-04-28 13:28:00,72.0,47.0,29.60,WSW,253,13.0,17.0,41,0.00,,---,0.00,VWS V14.01,2013-04-28 18:28:00,
2013-04-28 13:33:00,72.0,46.4,29.60,SW,223,11.0,16.0,40,0.00,,---,0.00,VWS V14.01,2013-04-28 18:33:00,
2013-04-28 13:38:00,72.1,47.1,29.60,SSW,196,10.0,17.0,41,0.00,,---,0.00,VWS V14.01,2013-04-28 18:38:00,
2013-04-28 13:43:00,72.5,49.4,29.60,SW,223,8.0,18.0,44,0.00,,---,0.00,VWS V14.01,2013-04-28 18:43:00,
2013-04-28 13:48:00,73.2,48.1,29.59,SW,216,7.0,18.0,41,0.00,,---,0.00,VWS V14.01,2013-04-28 18:48:00,
2013-04-28 13:53:00,73.3,46.9,29.59,WSW,248,13.0,14.0,39,0.00,,---,0.00,VWS V14.01,2013-04-28 18:53:00,
2013-04-28 13:58:00,73.3,47.5,29.59,SW,223,11.0,14.0,40,0.00,,---,0.00,VWS V14.01,2013-04-28 18:58:00,
2013-04-28 14:03:00,73.7,50.5,29.59,SSW,196,8.0,13.0,44,0.00,,---,0.00,VWS V14.01,2013-04-28 19:03:00,
2013-04-28 14:08:00,73.9,49.4,29.59,SSW,206,12.0,14.0,42,0.00,,---,0.00,VWS V14.01,2013-04-28 19:08:00,
2013-04-28 14:13:00,74.0,50.1,29.59,SSW,209,13.0,13.0,43,0.00,,---,0.00,VWS V14.01,2013-04-28 19:13:00,
2013-04-28 14:18:00,74.2,49.0,29.59,SSW,195,12.0,14.0,41,0.00,,---,0.00,VWS V14.01,2013-04-28 19:18:00,
2013-04-28 14:23:00,74.2,49.0,29.59,SSW,203,11.0,12.0,41,0.00,,---,0.00,VWS V14.01,2013-04-28 19:23:00,
2013-04-28 14:28:00,74.7,47.4,29.59,SSW,203,8.0,16.0,38,0.00,,---,0.00,VWS V14.01,2013-04-28 19:28:00,
2013-04-28 14:33:00,74.9,48.3,29.58,SW,222,7.0,14.0,39,0.00,,---,0.00,VWS V14.01,2013-04-28 19:33:00,
2013-04-28 14:38:00,75.3,47.3,29.58,SSW,206,10.0,14.0,37,0.00,,---,0.00,VWS V14.01,2013-04-28 19:38:00,
2013-04-28 14:43:00,75.3,47.3,29.58,WSW,251,13.0,17.0,37,0.00,,---,0.00,VWS V14.01,2013-04-28 19:43:00,
2013-04-28 14:48:00,75.4,46.6,29.58,SW,229,6.0,17.0,36,0.00,,---,0.00,VWS V14.01,2013-04-28 19:48:00,
2013-04-28 14:53:00,75.4,47.3,29.58,WSW,240,10.0,12.0,37,0.00,,---,0.00,VWS V14.01,2013-04-28 19:53:00,
2013-04-28 14:58:00,75.1,46.3,29.58,WSW,241,11.0,12.0,36,0.00,,---,0.00,VWS V14.01,2013-04-28 19:58:00,
2013-04-28 15:03:00,74.9,46.9,29.58,SW,224,7.0,10.0,37,0.00,,---,0.00,VWS V14.01,2013-04-28 20:03:00,
2013-04-28 15:08:00,75.1,47.8,29.58,WSW,237,3.0,10.0,38,0.00,,---,0.00,VWS V14.01,2013-04-28 20:08:00,
2013-04-28 15:13:00,75.3,48.7,29.58,West,261,7.0,8.0,39,0.00,,---,0.00,VWS V14.01,2013-04-28 20:13:00,
2013-04-28 15:18:00,75.4,46.6,29.59,WNW,288,10.0,13.0,36,0.00,,---,0.00,VWS V14.01,2013-04-28 20:18:00,
2013-04-28 15:23:00,75.4,45.9,29.59,West,277,10.0,10.0,35,0.00,,---,0.00,VWS V14.01,2013-04-28 20:23:00,
2013-04-28 15:28:00,75.3,46.5,29.59,NW,320,5.0,10.0,36,0.00,,---,0.00,VWS V14.01,2013-04-28 20:28:00,
2013-04-28 15:33:00,74.9,45.4,29.59,WNW,301,5.0,9.0,35,0.00,,---,0.00,VWS V14.01,2013-04-28 20:33:00,
2013-04-28 15:38:00,74.9,45.4,29.59,NW,320,6.0,9.0,35,0.00,,---,0.00,VWS V14.01,2013-04-28 20:38:00,
2013-04-28 15:43:00,74.9,46.9,29.59,WNW,294,5.0,5.0,37,0.00,,---,0.00,VWS V14.01,2013-04-28 20:43:00,
2013-04-28 15:48:00,75.1,47.1,29.59,NNW,330,2.0,6.0,37,0.00,,---,0.00,VWS V14.01,2013-04-28 20:48:00,
2013-04-28 15:53:00,75.3,48.7,29.59,NW,322,1.0,5.0,39,0.00,,---,0.00,VWS V14.01,2013-04-28 20:53:00,
2013-04-28 15:58:00,75.6,45.3,29.59,NW,315,6.0,11.0,34,0.00,,---,0.00,VWS V14.01,2013-04-28 20:58:00,
2013-04-28 16:03:00,75.8,47.0,29.59,North,356,6.0,11.0,36,0.00,,---,0.00,VWS V14.01,2013-04-28 21:03:00,
2013-04-28 16:08:00,75.8,43.9,29.59,NNW,342,13.0,13.0,32,0.00,,---,0.00,VWS V14.01,2013-04-28 21:08:00,
2013-04-28 16:13:00,75.6,42.9,29.59,NNW,340,8.0,8.0,31,0.00,,---,0.00,VWS V14.01,2013-04-28 21:13:00,
2013-04-28 16:18:00,76.0,44.0,29.59,NW,319,8.0,8.0,32,0.00,,---,0.00,VWS V14.01,2013-04-28 21:18:00,
2013-04-28 16:23:00,75.4,44.3,29.59,NNW,333,8.0,9.0,33,0.00,,---,0.00,VWS V14.01,2013-04-28 21:23:00,
2013-04-28 16:28:00,75.3,44.2,29.59,North,354,3.0,9.0,33,0.00,,---,0.00,VWS V14.01,2013-04-28 21:28:00,
2013-04-28 16:33:00,75.6,46.0,29.59,North,0,5.0,11.0,35,0.00,,---,0.00,VWS V14.01,2013-04-28 21:33:00,
2013-04-28 16:38:00,76.1,47.2,29.59,NNW,337,6.0,11.0,36,0.00,,---,0.00,VWS V14.01,2013-04-28 21:38:00,
2013-04-28 16:43:00,76.1,44.1,29.59,NNE,17,7.0,14.0,32,0.00,,---,0.00,VWS V14.01,2013-04-28 21:43:00,
2013-04-28 16:48:00,76.1,44.9,29.58,NNW,340,8.0,14.0,33,0.00,,---,0.00,VWS V14.01,2013-04-28 21:48:00,
2013-04-28 16:53:00,76.3,45.1,29.58,North,0,8.0,11.0,33,0.00,,---,0.00,VWS V14.01,2013-04-28 21:53:00,
2013-04-28 16:58:00,76.1,46.5,29.58,North,357,7.0,13.0,35,0.00,,---,0.00,VWS V14.01,2013-04-28 21:58:00,
2013-04-28 17:03:00,75.6,43.7,29.59,NNW,347,12.0,12.0,32,0.00,,---,0.00,VWS V14.01,2013-04-28 22:03:00,
2013-04-28 17:08:00,74.9,40.5,29.59,North,0,11.0,12.0,29,0.00,,---,0.00,VWS V14.01,2013-04-28 22:08:00,
2013-04-28 17:13:00,74.6,39.4,29.59,NNE,18,10.0,10.0,28,0.00,,---,0.00,VWS V14.01,2013-04-28 22:13:00,
2013-04-28 17:18:00,74.7,41.2,29.59,NNE,27,8.0,11.0,30,0.00,,---,0.00,VWS V14.01,2013-04-28 22:18:00,
2013-04-28 17:23:00,74.9,43.1,29.59,NE,35,10.0,10.0,32,0.00,,---,0.00,VWS V14.01,2013-04-28 22:23:00,
2013-04-28 17:28:00,74.6,40.3,29.59,North,0,5.0,16.0,29,0.00,,---,0.00,VWS V14.01,2013-04-28 22:28:00,
2013-04-28 17:33:00,74.2,39.0,29.60,North,0,8.0,15.0,28,0.00,,---,0.00,VWS V14.01,2013-04-28 22:33:00,
2013-04-28 17:38:00,74.0,42.3,29.60,North,1,7.0,15.0,32,0.00,,---,0.00,VWS V14.01,2013-04-28 22:38:00,
2013-04-28 17:43:00,73.7,41.2,29.60,North,0,10.0,11.0,31,0.00,,---,0.00,VWS V14.01,2013-04-28 22:43:00,
2013-04-28 17:48:00,73.0,42.2,29.61,North,1,14.0,18.0,33,0.00,,---,0.00,VWS V14.01,2013-04-28 22:48:00,
2013-04-28 17:53:00,72.3,43.1,29.61,NNE,23,10.0,16.0,35,0.00,,---,0.00,VWS V14.01,2013-04-28 22:53:00,
2013-04-28 17:58:00,71.6,42.5,29.61,North,8,7.0,18.0,35,0.00,,---,0.00,VWS V14.01,2013-04-28 22:58:00,
2013-04-28 18:03:00,71.3,43.7,29.62,North,1,9.0,11.0,37,0.00,,---,0.00,VWS V14.01,2013-04-28 23:03:00,
2013-04-28 18:08:00,70.9,44.0,29.62,North,0,8.0,15.0,38,0.00,,---,0.00,VWS V14.01,2013-04-28 23:08:00,
2013-04-28 18:13:00,70.3,44.9,29.62,North,0,7.0,14.0,40,0.00,,---,0.00,VWS V14.01,2013-04-28 23:13:00,
2013-04-28 18:18:00,69.6,45.5,29.63,North,8,9.0,14.0,42,0.00,,---,0.00,VWS V14.01,2013-04-28 23:18:00,
2013-04-28 18:23:00,69.1,44.4,29.63,North,359,10.0,13.0,41,0.00,,---,0.00,VWS V14.01,2013-04-28 23:23:00,
2013-04-28 18:28:00,68.8,45.4,29.63,NE,38,6.0,13.0,43,0.00,,---,0.00,VWS V14.01,2013-04-28 23:28:00,
2013-04-28 18:33:00,68.4,45.7,29.63,North,0,11.0,14.0,44,0.00,,---,0.00,VWS V14.01,2013-04-28 23:33:00,
2013-04-28 18:38:00,68.4,45.7,29.63,North,4,11.0,16.0,44,0.00,,---,0.00,VWS V14.01,2013-04-28 23:38:00,
2013-04-28 18:43:00,68.6,47.0,29.63,NNE,13,8.0,12.0,46,0.00,,---,0.00,VWS V14.01,2013-04-28 23:43:00,
2013-04-28 18:48:00,68.4,45.7,29.62,North,0,6.0,13.0,44,0.00,,---,0.00,VWS V14.01,2013-04-28 23:48:00,
2013-04-28 18:53:00,68.4,45.0,29.62,North,1,7.0,11.0,43,0.00,,---,0.00,VWS V14.01,2013-04-28 23:53:00,
2013-04-28 18:58:00,68.4,45.0,29.62,North,0,6.0,11.0,43,0.00,,---,0.00,VWS V14.01,2013-04-28 23:58:00,
2013-04-28 19:03:00,68.1,45.4,29.63,NNE,28,6.0,8.0,44,0.00,,---,0.00,VWS V14.01,2013-04-29 00:03:00,
2013-04-28 19:08:00,67.8,45.1,29.63,NNE,28,3.0,8.0,44,0.00,,---,0.00,VWS V14.01,2013-04-29 00:08:00,
2013-04-28 19:13:00,66.9,44.3,29.63,North,11,6.0,8.0,44,0.00,,---,0.00,VWS V14.01,2013-04-29 00:13:00,
2013-04-28 19:18:00,66.6,44.0,29.63,North,4,6.0,11.0,44,0.00,,---,0.00,VWS V14.01,2013-04-29 00:18:00,
2013-04-28 19:23:00,66.3,44.9,29.63,NNE,30,6.0,9.0,46,0.00,,---,0.00,VWS V14.01,2013-04-29 00:23:00,
2013-04-28 19:28:00,66.0,45.2,29.63,NNE,27,10.0,11.0,47,0.00,,---,0.00,VWS V14.01,2013-04-29 00:28:00,
2013-04-28 19:33:00,65.3,45.1,29.64,NE,37,6.0,10.0,48,0.00,,---,0.00,VWS V14.01,2013-04-29 00:33:00,
2013-04-28 19:38:00,64.7,45.7,29.64,NNE,20,2.0,10.0,50,0.00,,---,0.00,VWS V14.01,2013-04-29 00:38:00,
2013-04-28 19:43:00,64.5,45.5,29.64,North,11,2.0,7.0,50,0.00,,---,0.00,VWS V14.01,2013-04-29 00:43:00,
2013-04-28 19:48:00,64.2,44.1,29.64,North,7,2.0,10.0,48,0.00,,---,0.00,VWS V14.01,2013-04-29 00:48:00,
2013-04-28 19:53:00,64.8,44.7,29.64,North,10,3.0,7.0,48,0.00,,---,0.00,VWS V14.01,2013-04-29 00:53:00,
2013-04-28 19:58:00,64.5,44.9,29.64,NNE,20,5.0,7.0,49,0.00,,---,0.00,VWS V14.01,2013-04-29 00:58:00,
2013-04-28 20:03:00,63.7,46.3,29.64,NE,52,5.0,6.0,53,0.00,,---,0.00,VWS V14.01,2013-04-29 01:03:00,
2013-04-28 20:08:00,62.7,45.8,29.64,NNE,30,3.0,7.0,54,0.00,,---,0.00,VWS V14.01,2013-04-29 01:08:00,
2013-04-28 20:13:00,62.4,45.5,29.64,NNE,28,0.0,6.0,54,0.00,,---,0.00,VWS V14.01,2013-04-29 01:13:00,
2013-04-28 20:18:00,62.0,45.7,29.63,NNE,20,1.0,6.0,55,0.00,,---,0.00,VWS V14.01,2013-04-29 01:18:00,
2013-04-28 20:23:00,61.3,46.0,29.63,NNE,23,1.0,3.0,57,0.00,,---,0.00,VWS V14.01,2013-04-29 01:23:00,
2013-04-28 20:28:00,61.2,44.9,29.63,NNE,13,3.0,5.0,55,0.00,,---,0.00,VWS V14.01,2013-04-29 01:28:00,
2013-04-28 20:33:00,61.2,44.9,29.64,NNE,27,0.0,1.0,55,0.00,,---,0.00,VWS V14.01,2013-04-29 01:33:00,
2013-04-28 20:38:00,61.2,44.4,29.64,NNE,27,0.0,2.0,54,0.00,,---,0.00,VWS V14.01,2013-04-29 01:38:00,
2013-04-28 20:43:00,61.0,44.2,29.64,NNE,27,0.0,0.0,54,0.00,,---,0.00,VWS V14.01,2013-04-29 01:43:00,
2013-04-28 20:48:00,60.9,43.7,29.65,NNE,27,0.0,0.0,53,0.00,,---,0.00,VWS V14.01,2013-04-29 01:48:00,
2013-04-28 20:53:00,60.7,43.5,29.65,NNE,27,0.0,0.0,53,0.00,,---,0.00,VWS V14.01,2013-04-29 01:53:00,
2013-04-28 20:58:00,61.0,42.8,29.65,NNE,27,0.0,0.0,51,0.00,,---,0.00,VWS V14.01,2013-04-29 01:58:00,
2013-04-28 21:03:00,61.5,42.7,29.65,NNE,27,0.0,0.0,50,0.00,,---,0.00,VWS V14.01,2013-04-29 02:03:00,
2013-04-28 21:08:00,61.8,42.5,29.65,NNE,27,0.0,0.0,49,0.00,,---,0.00,VWS V14.01,2013-04-29 02:08:00,
2013-04-28 21:13:00,61.8,43.0,29.65,NNE,27,0.0,0.0,50,0.00,,---,0.00,VWS V14.01,2013-04-29 02:13:00,
2013-04-28 21:18:00,61.3,43.0,29.65,NNE,27,0.0,0.0,51,0.00,,---,0.00,VWS V14.01,2013-04-29 02:18:00,
2013-04-28 21:23:00,61.2,43.5,29.65,NNE,27,0.0,0.0,52,0.00,,---,0.00,VWS V14.01,2013-04-29 02:23:00,
2013-04-28 21:28:00,61.0,43.3,29.65,NNE,27,0.0,0.0,52,0.00,,---,0.00,VWS V14.01,2013-04-29 02:28:00,
2013-04-28 21:33:00,60.5,43.8,29.67,NNE,27,0.0,0.0,54,0.00,,---,0.00,VWS V14.01,2013-04-29 02:33:00,
2013-04-28 21:38:00,60.5,43.8,29.67,NNW,344,10.0,10.0,54,0.00,,---,0.00,VWS V14.01,2013-04-29 02:38:00,
2013-04-28 21:43:00,61.0,43.3,29.67,North,349,5.0,11.0,52,0.00,,---,0.00,VWS V14.01,2013-04-29 02:43:00,
2013-04-28 21:48:00,60.2,43.5,29.68,North,6,6.0,11.0,54,0.00,,---,0.00,VWS V14.01,2013-04-29 02:48:00,
2013-04-28 21:53:00,59.5,44.3,29.68,NNE,16,6.0,7.0,57,0.00,,---,0.00,VWS V14.01,2013-04-29 02:53:00,
2013-04-28 21:58:00,58.9,44.6,29.68,North,7,2.0,7.0,59,0.00,,---,0.00,VWS V14.01,2013-04-29 02:58:00,
2013-04-28 22:03:00,58.4,44.6,29.68,North,4,5.0,7.0,60,0.00,,---,0.00,VWS V14.01,2013-04-29 03:03:00,
2013-04-28 22:08:00,58.1,44.7,29.68,North,0,7.0,11.0,61,0.00,,---,0.00,VWS V14.01,2013-04-29 03:08:00,
2013-04-28 22:13:00,58.0,44.6,29.68,North,352,6.0,8.0,61,0.00,,---,0.00,VWS V14.01,2013-04-29 03:13:00,
2013-04-28 22:18:00,57.8,44.9,29.69,North,357,10.0,12.0,62,0.00,,---,0.00,VWS V14.01,2013-04-29 03:18:00,
2013-04-28 22:23:00,57.8,44.9,29.69,North,1,7.0,10.0,62,0.00,,---,0.00,VWS V14.01,2013-04-29 03:23:00,
2013-04-28 22:28:00,57.5,45.0,29.69,North,6,6.0,10.0,63,0.00,,---,0.00,VWS V14.01,2013-04-29 03:28:00,
2013-04-28 22:33:00,57.3,45.2,29.70,North,356,8.0,11.0,64,0.00,,---,0.00,VWS V14.01,2013-04-29 03:33:00,
2013-04-28 22:38:00,57.0,45.4,29.70,North,356,6.0,11.0,65,0.00,,---,0.00,VWS V14.01,2013-04-29 03:38:00,
2013-04-28 22:43:00,56.7,45.5,29.70,North,4,6.0,8.0,66,0.00,,---,0.00,VWS V14.01,2013-04-29 03:43:00,
2013-04-28 22:48:00,56.5,46.1,29.70,North,6,5.0,8.0,68,0.00,,---,0.00,VWS V14.01,2013-04-29 03:48:00,
2013-04-28 22:53:00,56.2,45.8,29.70,NNE,18,5.0,5.0,68,0.00,,---,0.00,VWS V14.01,2013-04-29 03:53:00,
2013-04-28 22:57:00,56.0,46.0,29.70,North,8,6.0,7.0,69,0.00,,---,0.00,VWS V14.01,2013-04-29 03:57:00,
2013-04-28 23:01:00,56.0,46.0,29.70,North,0,2.0,8.0,69,0.00,,---,0.00,VWS V14.01,2013-04-29 04:01:00,
2013-04-28 23:06:00,55.9,45.9,29.70,North,11,4.0,7.0,69,0.00,,---,0.00,VWS V14.01,2013-04-29 04:06:00,
2013-04-28 23:11:00,55.9,45.9,29.70,North,0,6.0,6.0,69,0.00,,---,0.00,VWS V14.01,2013-04-29 04:11:00,
2013-04-28 23:16:00,55.7,46.1,29.70,North,1,2.0,8.0,70,0.00,,---,0.00,VWS V14.01,2013-04-29 04:16:00,
2013-04-28 23:21:00,55.6,46.4,29.70,North,359,5.0,6.0,71,0.00,,---,0.00,VWS V14.01,2013-04-29 04:21:00,
2013-04-28 23:26:00,55.4,46.2,29.70,North,0,7.0,10.0,71,0.00,,---,0.00,VWS V14.01,2013-04-29 04:26:00,
2013-04-28 23:31:00,55.3,46.1,29.70,North,4,4.0,4.0,71,0.00,,---,0.00,VWS V14.01,2013-04-29 04:31:00,
2013-04-28 23:36:00,55.1,46.2,29.70,North,3,7.0,11.0,72,0.00,,---,0.00,VWS V14.01,2013-04-29 04:36:00,
2013-04-28 23:41:00,55.0,46.2,29.70,North,356,8.0,8.0,72,0.00,,---,0.00,VWS V14.01,2013-04-29 04:41:00,
2013-04-28 23:46:00,55.0,46.2,29.70,North,6,6.0,12.0,72,0.00,,---,0.00,VWS V14.01,2013-04-29 04:46:00,
2013-04-28 23:51:00,54.8,45.6,29.70,North,359,11.0,11.0,71,0.00,,---,0.00,VWS V14.01,2013-04-29 04:51:00,
2013-04-28 23:56:00,54.7,45.9,29.70,North,3,7.0,11.0,72,0.00,,---,0.00,VWS V14.01,2013-04-29 04:56:00,